Location: Chevoux
(46.3801°N, 4.9476°E)
Time: 23:00:13
(UTC+00:00)

Cosmos 1833 Rocket - Pass Details

Date: 28 January 2021
Orbit: 833 x 839 km, 71.0° (Epoch: 04 March)

Event Time Altitude Azimuth Distance (km) Brightness Sun altitude
Rises 19:01:36 0° 325° (NW) 3,391 6.3 -24.6°
Reaches altitude 10° 19:04:15 10° 316° (NW) 2,453 5.6 -25.1°
Maximum altitude 19:09:11 32° 255° (WSW) 1,394 4.4 -25.9°
Drops below altitude 10° 19:14:05 10° 194° (SSW) 2,441 5.2 -26.8°
Sets 19:16:44 0° 184° (S) 3,372 5.9 -27.2°
